CW3322 Weather Reports


Display with metric or nautical units.
time (UTC)temp
F
wind
direction
speed
MPH
gust
MPH
rain 1hr
in
rain 24hr
in
rain mn
in
humidity
%
barometer
mb
20260509201015 59 0.0 0.0 0.00 0.00 0.00 75 1015.3
20260509200520 59 0.0 0.0 0.00 0.00 0.00 75 1015.3
20260509200055 59 356 0.0 1.0 0.00 0.00 0.00 76 1015.2
20260509195517 59 0.0 0.0 0.00 0.00 0.00 77 1015.2
20260509195022 59 0.0 0.0 0.00 0.00 0.00 77 1015.2
20260509194556 59 0.0 0.0 0.00 0.00 0.00 77 1015.2
20260509194019 59 0.0 0.0 0.00 0.00 0.00 76 1015.2
20260509193553 60 0.0 0.0 0.00 0.00 0.00 76 1015.3
20260509193016 60 0.0 0.0 0.00 0.00 0.00 76 1014.8
20260509192520 60 0.0 0.0 0.00 0.00 0.00 76 1014.3
20260509192126 60 0.0 0.0 0.00 0.00 0.00 76 1014.3
20260509191518 61 0.0 0.0 0.00 0.00 0.00 76 1014.3
20260509191123 61 0.0 0.0 0.00 0.00 0.00 74 1014.3
20260509190545 61 0.0 0.0 0.00 0.00 0.00 74 1014.2
20260509190020 62 0.0 0.0 0.00 0.00 0.00 74 1014.3
20260509185525 62 0.0 0.0 0.00 0.00 0.00 73 1014.3
20260509185018 63 0.0 0.0 0.00 0.00 0.00 71 1014.3
20260509184522 63 0.0 0.0 0.00 0.00 0.00 70 1014.3
20260509184015 64 0.0 0.0 0.00 0.00 0.00 69 1014.3
20260509183520 64 0.0 0.0 0.00 0.00 0.00 70 1014.3
20260509183025 65 0.0 0.0 0.00 0.00 0.00 69 1014.2
20260509182548 66 0.0 0.0 0.00 0.00 0.00 66 1014.3
20260509182023 67 0.0 0.0 0.00 0.00 0.00 65 1014.3
20260509181515 68 0.0 0.0 0.00 0.00 0.00 63 1014.3
20260509181020 69 0.0 0.0 0.00 0.00 0.00 60 1014.3
20260509180555 69 0.0 0.0 0.00 0.00 0.00 55 1014.2
20260509180017 69 5 0.0 1.0 0.00 0.00 0.00 54 1014.2
20260509175522 70 0.0 0.0 0.00 0.00 0.00 55 1014.2
20260509175015 70 0.0 0.0 0.00 0.00 0.00 54 1014.2
20260509174520 70 348 0.0 0.0 0.00 0.00 0.00 52 1014.2
20260509174056 70 25 0.0 2.0 0.00 0.00 0.00 51 1014.2
20260509173518 70 9 0.0 2.0 0.00 0.00 0.00 51 1014.1
20260509173037 71 356 0.0 1.0 0.00 0.00 0.00 50 1014.1
20260509172529 71 12 1.0 2.0 0.00 0.00 0.00 50 1014.1
20260509172022 71 355 0.0 1.0 0.00 0.00 0.00 50 1014.1
20260509171515 71 2 0.0 2.0 0.00 0.00 0.00 49 1014.1
20260509171019 71 32 1.0 5.0 0.00 0.00 0.00 47 1014.1
20260509170525 72 351 0.0 1.0 0.00 0.00 0.00 47 1014.1
20260509170017 72 0 0.0 1.0 0.00 0.00 0.00 47 1014.1
20260509165622 72 316 0.0 2.0 0.00 0.00 0.00 43 1014.1
20260509165015 73 327 0.0 2.0 0.00 0.00 0.00 43 1014.1
20260509164520 73 357 0.0 2.0 0.00 0.00 0.00 43 1014.1
20260509164025 73 317 1.0 2.0 0.00 0.00 0.00 43 1014.1
20260509163518 74 22 1.0 2.0 0.00 0.00 0.00 42 1014.1
20260509163023 75 26 1.0 3.0 0.00 0.00 0.00 41 1014.2
20260509162516 75 20 0.0 2.0 0.00 0.00 0.00 40 1014.2
20260509162021 76 13 1.0 3.0 0.00 0.00 0.00 40 1014.2
20260509161526 76 356 0.0 2.0 0.00 0.00 0.00 41 1014.2
20260509161019 75 0.0 0.0 0.00 0.00 0.00 43 1014.2
20260509160525 74 3 0.0 2.0 0.00 0.00 0.00 44 1014.1
20260509160018 74 26 0.0 2.0 0.00 0.00 0.00 43 1014.1
20260509155523 73 14 0.0 2.0 0.00 0.00 0.00 43 1014.1
20260509155046 74 3 0.0 2.0 0.00 0.00 0.00 43 1014.1
20260509154521 74 359 0.0 5.0 0.00 0.00 0.00 43 1014.1
20260509154026 75 26 1.0 3.0 0.00 0.00 0.00 42 1014.2
20260509153519 76 36 2.0 5.0 0.00 0.00 0.00 41 1014.2
20260509153024 77 25 1.0 5.0 0.00 0.00 0.00 40 1014.2
20260509152517 77 11 1.0 2.0 0.00 0.00 0.00 39 1014.5
20260509152022 77 23 1.0 5.0 0.00 0.00 0.00 39 1015.2
20260509151515 78 15 1.0 2.0 0.00 0.00 0.00 38 1015.3
20260509151020 77 356 0.0 3.0 0.00 0.00 0.00 39 1015.2
20260509150525 76 3 0.0 2.0 0.00 0.00 0.00 40 1015.2
20260509150018 76 9 0.0 2.0 0.00 0.00 0.00 41 1015.2
20260509145523 76 18 0.0 2.0 0.00 0.00 0.00 40 1015.2
20260509145016 76 7 0.0 3.0 0.00 0.00 0.00 40 1015.2
20260509144521 76 17 0.0 2.0 0.00 0.00 0.00 40 1015.2
20260509144026 76 16 1.0 3.0 0.00 0.00 0.00 40 1015.2
20260509143519 76 29 1.0 5.0 0.00 0.00 0.00 40 1015.2
20260509143024 76 357 1.0 5.0 0.00 0.00 0.00 38 1015.2
20260509142518 76 333 1.0 3.0 0.00 0.00 0.00 39 1015.2
20260509142023 76 310 1.0 2.0 0.00 0.00 0.00 39 1015.2
20260509141516 76 0.0 0.0 0.00 0.00 0.00 40 1015.2
20260509141128 77 20 1.0 2.0 0.00 0.00 0.00 38 1015.3
20260509140526 77 16 1.0 3.0 0.00 0.00 0.00 38 1015.3
20260509140234 78 28 1.0 5.0 0.00 0.00 0.00 37 1015.3
20260509135554 78 32 1.0 5.0 0.00 0.00 0.00 38 1015.3
20260509135018 78 11 1.0 2.0 0.00 0.00 0.00 38 1016.2
20260509134523 78 17 1.0 7.0 0.00 0.00 0.00 39 1016.3
20260509134046 78 358 0.0 2.0 0.00 0.00 0.00 41 1016.3
20260509133551 78 24 1.0 3.0 0.00 0.00 0.00 39 1016.3
20260509133026 78 3 0.0 2.0 0.00 0.00 0.00 42 1016.4
20260509132519 79 23 1.0 3.0 0.00 0.00 0.00 41 1016.4
20260509132024 78 349 0.0 2.0 0.00 0.00 0.00 41 1016.4
20260509131517 78 331 0.0 2.0 0.00 0.00 0.00 41 1016.3
20260509131022 78 1 1.0 5.0 0.00 0.00 0.00 42 1016.4
20260509130515 77 58 0.0 3.0 0.00 0.00 0.00 44 1016.4
20260509130050 76 355 0.0 2.0 0.00 0.00 0.00 44 1016.4
20260509125525 76 352 0.0 3.0 0.00 0.00 0.00 44 1016.3
20260509125018 76 4 0.0 2.0 0.00 0.00 0.00 45 1016.4
20260509124653 76 1 0.0 2.0 0.00 0.00 0.00 46 1016.4
20260509124045 75 2 0.0 2.0 0.00 0.00 0.00 45 1016.3
20260509123520 74 355 0.0 1.0 0.00 0.00 0.00 47 1016.3
20260509123109 74 30 1.0 5.0 0.00 0.00 0.00 47 1016.4
20260509122532 75 29 2.0 5.0 0.00 0.00 0.00 46 1016.4
20260509122024 75 16 1.0 5.0 0.00 0.00 0.00 47 1016.8
20260509121517 75 22 1.0 8.0 0.00 0.00 0.00 48 1017.4
20260509121021 74 358 1.0 2.0 0.00 0.00 0.00 48 1017.4
20260509120526 73 314 1.0 2.0 0.00 0.00 0.00 49 1017.3
20260509120019 73 313 1.0 5.0 0.00 0.00 0.00 47 1017.4
20260509115524 74 85 1.0 2.0 0.00 0.00 0.00 50 1017.4
20260509115016 74 38 0.0 5.0 0.00 0.00 0.00 48 1017.4
20260509114549 74 32 1.0 2.0 0.00 0.00 0.00 47 1017.4
20260509114056 74 35 1.0 5.0 0.00 0.00 0.00 48 1017.4
20260509113519 73 19 1.0 2.0 0.00 0.00 0.00 49 1017.4
20260509113024 73 357 0.0 1.0 0.00 0.00 0.00 51 1017.4
20260509112517 73 21 1.0 2.0 0.00 0.00 0.00 51 1017.4
20260509112022 72 24 1.0 3.0 0.00 0.00 0.00 52 1017.3
20260509111527 72 288 1.0 3.0 0.00 0.00 0.00 52 1017.3
20260509111019 72 318 1.0 5.0 0.00 0.00 0.00 52 1017.3
20260509110538 71 30 1.0 4.0 0.00 0.00 0.00 53 1017.3
20260509110030 72 12 1.0 5.0 0.00 0.00 0.00 52 1017.4
20260509105522 72 30 2.0 4.0 0.00 0.00 0.00 51 1017.4
20260509105015 72 29 1.0 5.0 0.00 0.00 0.00 53 1018.1
20260509104519 72 44 0.0 3.0 0.00 0.00 0.00 54 1018.4
20260509104038 72 37 1.0 6.0 0.00 0.00 0.00 52 1018.4
20260509103530 71 359 0.0 2.0 0.00 0.00 0.00 54 1018.3
20260509103024 71 13 0.0 2.0 0.00 0.00 0.00 55 1018.3
20260509102517 70 21 1.0 3.0 0.00 0.00 0.00 54 1018.3
20260509102021 69 7 1.0 2.0 0.00 0.00 0.00 55 1018.3
20260509101526 69 17 1.0 3.0 0.00 0.00 0.00 56 1018.3
20260509101019 70 40 1.0 5.0 0.00 0.00 0.00 55 1018.3
20260509100524 70 9 1.0 4.0 0.00 0.00 0.00 54 1018.3
20260509100017 70 25 1.0 6.0 0.00 0.00 0.00 56 1018.3
20260509095522 70 21 0.0 5.0 0.00 0.00 0.00 56 1018.3
20260509095057 69 20 1.0 5.0 0.00 0.00 0.00 57 1018.3
20260509094520 69 7 1.0 2.0 0.00 0.00 0.00 56 1018.3
20260509094025 68 12 1.0 5.0 0.00 0.00 0.00 57 1018.3
20260509093548 69 180 2.0 5.0 0.00 0.00 0.00 57 1018.3
20260509093023 68 328 1.0 6.0 0.00 0.00 0.00 57 1018.4
20260509092516 68 6 1.0 5.0 0.00 0.00 0.00 57 1018.4
20260509092021 68 15 1.0 3.0 0.00 0.00 0.00 58 1018.4
20260509091526 67 25 2.0 7.0 0.00 0.00 0.00 58 1018.3
20260509091049 67 0 1.0 2.0 0.00 0.00 0.00 60 1018.3
20260509090554 67 27 2.0 5.0 0.00 0.00 0.00 59 1018.3
20260509090016 66 45 1.0 5.0 0.00 0.00 0.00 58 1018.3
20260509085521 66 2 1.0 5.0 0.00 0.00 0.00 60 1018.3
20260509085056 66 17 1.0 8.0 0.00 0.00 0.00 60 1018.3
20260509084519 66 36 1.0 5.0 0.00 0.00 0.00 60 1018.3
20260509084054 66 18 2.0 5.0 0.00 0.00 0.00 60 1018.3
20260509083516 65 22 1.0 8.0 0.00 0.00 0.00 61 1018.3
20260509083021 65 11 1.0 5.0 0.00 0.00 0.00 61 1018.3
20260509082526 65 24 1.0 4.0 0.00 0.00 0.00 62 1018.3
20260509082019 64 10 1.0 2.0 0.00 0.00 0.00 63 1018.3
20260509081525 64 40 1.0 3.0 0.00 0.00 0.00 63 1019.3
20260509081017 63 9 1.0 3.0 0.00 0.00 0.00 63 1019.3
20260509080522 63 24 1.0 3.0 0.00 0.00 0.00 64 1019.3
20260509080015 62 22 1.0 3.0 0.00 0.00 0.00 65 1019.3
20260509075550 62 56 1.0 5.0 0.00 0.00 0.00 66 1019.3
20260509075054 62 32 1.0 5.0 0.00 0.00 0.00 66 1019.3
20260509074547 61 20 1.0 3.0 0.00 0.00 0.00 66 1018.4
20260509074022 61 23 1.0 5.0 0.00 0.00 0.00 67 1018.3
20260509073545 60 35 1.0 3.0 0.00 0.00 0.00 68 1018.2
20260509073019 60 36 1.0 5.0 0.00 0.00 0.00 69 1018.3
20260509072524 60 39 2.0 5.0 0.00 0.00 0.00 69 1018.3
20260509072017 60 36 1.0 6.0 0.00 0.00 0.00 69 1018.3
20260509071521 60 33 1.0 5.0 0.00 0.00 0.00 70 1018.3
20260509071039 60 35 1.0 3.0 0.00 0.00 0.00 69 1018.3
20260509070631 60 5 1.0 2.0 0.00 0.00 0.00 69 1018.3
20260509070051 59 5 0.0 1.0 0.00 0.00 0.00 70 1019.3
20260509065556 60 17 1.0 3.0 0.00 0.00 0.00 71 1019.3
20260509065101 60 12 1.0 2.0 0.00 0.00 0.00 69 1019.3
20260509064522 60 0.0 0.0 0.00 0.00 0.00 68 1019.3
20260509064350 59 0.0 0.0 0.00 0.00 0.00 70 1019.3
20260509063548 58 0.0 0.0 0.00 0.00 0.00 73 1019.3
20260509063023 58 0.0 0.0 0.00 0.00 0.00 72 1019.3
20260509062858 58 0.0 0.0 0.00 0.00 0.00 74 1018.3
20260509062019 58 0.0 0.0 0.00 0.00 0.00 73 1018.3
20260509062006 56 0.0 0.0 0.00 0.00 0.00 77 1018.3
20260509061026 55 0.0 0.0 0.00 0.00 0.00 78 1018.2
20260509060517 54 0.0 0.0 0.00 0.00 0.00 82 1018.2
20260509060021 54 0.0 0.0 0.00 0.00 0.00 82 1018.5
20260509055524 53 0.0 0.0 0.00 0.00 0.00 84 1019.2
20260509055016 51 0.0 0.0 0.00 0.00 0.00 89 1019.2
20260509054620 50 0.0 0.0 0.00 0.00 0.00 93 1018.9
20260509054054 48 0.0 0.0 0.00 0.00 0.00 97 1018.1
20260509053515 47 0.0 0.0 0.00 0.00 0.00 99 1018.1
20260509053019 46 0.0 0.0 0.00 0.00 0.00 99 1018.1
20260509052523 45 0.0 0.0 0.00 0.00 0.00 99 1018.1
20260509052027 44 0.0 0.0 0.00 0.00 0.00 99 1018.0
20260509051518 43 0.0 0.0 0.00 0.00 0.00 99 1018.0
20260509051022 43 0.0 0.0 0.00 0.00 0.00 99 1018.0
20260509050526 42 0.0 0.0 0.00 0.00 0.00 99 1017.9
20260509050018 42 0.0 0.0 0.00 0.00 0.00 99 1018.0
20260509045522 42 0.0 0.0 0.00 0.00 0.00 99 1018.0
20260509045026 41 0.0 0.0 0.00 0.00 0.00 99 1017.9
20260509044518 41 0.0 0.0 0.00 0.00 0.00 99 1017.9
20260509044021 41 0.0 0.0 0.00 0.00 0.00 99 1017.9
20260509043525 41 0.0 0.0 0.00 0.00 0.00 99 1017.9
20260509043017 41 0.0 0.0 0.00 0.00 0.00 99 1017.9
20260509042521 41 0.0 0.0 0.00 0.00 0.00 99 1017.9
20260509042025 41 0.0 0.0 0.00 0.00 0.00 99 1017.9
20260509041729 41 0.0 0.0 0.00 0.00 0.00 99 1017.9
20260509041021 41 0.0 0.0 0.00 0.00 0.00 99 1017.9
20260509040802 41 0.0 0.0 0.00 0.00 0.00 99 1017.9
20260509040016 41 0.0 0.0 0.00 0.00 0.00 99 1018.0
20260509035520 41 0.0 0.0 0.00 0.00 0.00 99 1018.0
20260509035024 41 0.0 0.0 0.00 0.00 0.00 99 1018.0
20260509034515 41 0.0 0.0 0.00 0.00 0.00 99 1018.0
20260509034019 41 0.0 0.0 0.00 0.00 0.00 99 1018.0
20260509033523 42 0.0 0.0 0.00 0.00 0.00 99 1018.0
20260509033027 42 0.0 0.0 0.00 0.00 0.00 99 1018.0
20260509032518 42 0.0 0.0 0.00 0.00 0.00 99 1018.0
20260509032023 42 0.0 0.0 0.00 0.00 0.00 99 1018.0
20260509031527 42 0.0 0.0 0.00 0.00 0.00 99 1018.0
20260509031019 42 0.0 0.0 0.00 0.00 0.00 99 1018.0
20260509030523 42 0.0 0.0 0.00 0.00 0.00 99 1018.0
20260509030015 42 0.0 0.0 0.00 0.00 0.00 99 1018.0
20260509025519 42 0.0 0.0 0.00 0.00 0.00 99 1018.0
20260509025023 42 0.0 0.0 0.00 0.00 0.00 99 1018.0
20260509024516 42 0.0 0.0 0.00 0.00 0.00 99 1018.0
20260509024019 42 0.0 0.0 0.00 0.00 0.00 99 1018.0
20260509023524 42 0.0 0.0 0.00 0.00 0.00 98 1018.0
20260509023016 43 0.0 0.0 0.00 0.00 0.00 98 1018.0
20260509022520 43 0.0 0.0 0.00 0.00 0.00 98 1018.0
20260509022124 43 0.0 0.0 0.00 0.00 0.00 99 1018.0
20260509021516 43 0.0 0.0 0.00 0.00 0.00 98 1018.0
20260509021033 43 0.0 0.0 0.00 0.00 0.00 98 1018.0
20260509020525 44 0.0 0.0 0.00 0.00 0.00 98 1018.0
20260509020017 44 0.0 0.0 0.00 0.00 0.00 99 1018.1
20260509015520 44 0.0 0.0 0.00 0.00 0.00 99 1018.1
20260509015025 44 0.0 0.0 0.00 0.00 0.00 98 1018.1
20260509014516 44 0.0 0.0 0.00 0.00 0.00 97 1018.1
20260509014021 44 0.0 0.0 0.00 0.00 0.00 97 1018.1
20260509013525 44 0.0 0.0 0.00 0.00 0.00 96 1018.1
20260509013017 44 0.0 0.0 0.00 0.00 0.00 96 1018.1
20260509012521 45 0.0 0.0 0.00 0.00 0.00 96 1018.0
20260509012025 45 0.0 0.0 0.00 0.00 0.00 96 1018.0
20260509011517 45 0.0 0.0 0.00 0.00 0.00 97 1018.0
20260509011021 45 0.0 0.0 0.00 0.00 0.00 97 1018.0
20260509010525 45 0.0 0.0 0.00 0.00 0.00 96 1018.0
20260509010017 45 0.0 0.0 0.00 0.00 0.00 94 1018.0
20260509005521 45 0.0 0.0 0.00 0.00 0.00 94 1018.0
20260509005025 46 0.0 0.0 0.00 0.00 0.00 95 1018.1
20260509004547 46 0.0 0.0 0.00 0.00 0.00 95 1018.1
20260509004021 46 0.0 0.0 0.00 0.00 0.00 95 1018.1
20260509003555 46 0.0 0.0 0.00 0.00 0.00 95 1018.1
20260509003017 46 0.0 0.0 0.00 0.00 0.00 95 1018.1
20260509002521 46 0.0 0.0 0.00 0.00 0.00 94 1018.1
20260509002026 46 0.0 0.0 0.00 0.00 0.00 93 1018.1
20260509001518 47 0.0 0.0 0.00 0.00 0.00 91 1018.1
20260509001022 47 0.0 0.0 0.00 0.00 0.00 91 1018.1
20260509000526 47 0.0 0.0 0.00 0.00 0.00 91 1018.1
20260509000018 48 0.0 0.0 0.00 0.00 0.00 91 1018.1
20260508235522 48 0.0 0.0 0.00 0.00 0.00 89 1018.1
20260508235015 48 0.0 0.0 0.00 0.00 0.00 89 1018.4
20260508234519 49 0.0 0.0 0.00 0.00 0.00 89 1019.2
20260508234024 49 0.0 0.0 0.00 0.00 0.00 88 1019.2
20260508233545 49 0.0 0.0 0.00 0.00 0.00 89 1019.2
20260508233050 49 0.0 0.0 0.00 0.00 0.00 89 1019.2
20260508232524 49 0.0 0.0 0.00 0.00 0.00 90 1019.2
20260508232016 49 0.0 0.0 0.00 0.00 0.00 89 1019.0
20260508231521 49 0.0 0.0 0.00 0.00 0.00 89 1018.2
20260508231025 49 0.0 0.0 0.00 0.00 0.00 89 1018.2
20260508230517 49 0.0 0.0 0.00 0.00 0.00 89 1018.2
20260508230034 49 0.0 0.0 0.00 0.00 0.00 90 1018.2
20260508225526 49 0.0 0.0 0.00 0.00 0.00 90 1018.1
20260508225018 49 0.0 0.0 0.00 0.00 0.00 89 1018.1
20260508224534 50 0.0 0.0 0.00 0.00 0.00 89 1018.1
20260508224026 50 0.0 0.0 0.00 0.00 0.00 89 1018.2
20260508223518 50 0.0 0.0 0.00 0.00 0.00 89 1018.2
20260508223121 50 0.0 0.0 0.00 0.00 0.00 89 1018.2
20260508222556 50 0.0 0.0 0.00 0.00 0.00 88 1018.1
20260508222048 50 0.0 0.0 0.00 0.00 0.00 88 1018.1
20260508221522 50 0.0 0.0 0.00 0.00 0.00 88 1018.1
20260508221027 50 0.0 0.0 0.00 0.00 0.00 87 1018.1
20260508220519 50 0.0 0.0 0.00 0.00 0.00 87 1018.1
20260508220023 50 0.0 0.0 0.00 0.00 0.00 87 1018.1
20260508215615 50 0.0 0.0 0.00 0.00 0.00 87 1018.1
20260508215508 50 0.0 0.0 0.00 0.00 0.00 86 1018.1
20260508214555 51 0.0 0.0 0.00 0.00 0.00 85 1018.1
20260508214017 51 0.0 0.0 0.00 0.00 0.00 86 1018.1
20260508213521 51 0.0 0.0 0.00 0.00 0.00 85 1018.1
20260508213039 51 0.0 0.0 0.00 0.00 0.00 84 1018.1
20260508212531 52 0.0 0.0 0.00 0.00 0.00 82 1018.2
20260508212052 52 0.0 0.0 0.00 0.00 0.00 83 1018.1
20260508211527 53 0.0 0.0 0.00 0.00 0.00 82 1018.1
20260508211130 53 0.0 0.0 0.00 0.00 0.00 80 1018.1
20260508210524 53 0.0 0.0 0.00 0.00 0.00 79 1018.1
20260508210016 54 0.0 0.0 0.00 0.00 0.00 78 1018.1
20260508205620 54 355 0.0 1.0 0.00 0.00 0.00 77 1018.2
20260508205025 54 0.0 0.0 0.00 0.00 0.00 78 1018.2
20260508204517 55 0.0 0.0 0.00 0.00 0.00 77 1018.2
20260508204052 55 0.0 0.0 0.00 0.00 0.00 76 1018.2
20260508203527 55 0.0 0.0 0.00 0.00 0.00 74 1018.2
20260508203019 55 0.0 0.0 0.00 0.00 0.00 73 1018.2
20260508202523 56 0.0 0.0 0.00 0.00 0.00 73 1018.2
20260508202016 56 0.0 0.0 0.00 0.00 0.00 73 1018.1
20260508201521 56 0 0.0 2.0 0.00 0.00 0.00 73 1018.1